When you browse on this site, cookies collect data to enhance your experience and personalize the content and advertising you see.
Visit our Privacy Policy to learn more. By continuing to use the site, you agree to this use of cookies and data.
  • In Latvia
  • List of Countries
  • For 7 days
  • Water Temperature
  • Satellite Maps
  • Weather Map
  • Weather Widgets
  • user-avatar
    Login

    Hourly Weather Lubango

    Today, 18 July, Thursday

    Time Temperature Precipitation Wind Pressure Humidity
    00:00 +14°C° 0 mm 2 mps 609 mmHg 24%
    01:00 +13°C° 0 mm 2 mps 609 mmHg 23%
    02:00 +13°C° 0 mm 2 mps 609 mmHg 25%
    03:00 +12°C° 0 mm 3 mps 608 mmHg 27%
    04:00 +11°C° 0 mm 3 mps 608 mmHg 29%
    05:00 +11°C° 0 mm 3 mps 608 mmHg 30%
    06:00 +11°C° 0 mm 3 mps 608 mmHg 31%
    07:00 +11°C° 0 mm 3 mps 609 mmHg 32%
    08:00 +14°C° 0 mm 4 mps 610 mmHg 27%
    09:00 +19°C° 0 mm 4 mps 611 mmHg 23%
    10:00 +22°C° 0 mm 5 mps 612 mmHg 19%
    11:00 +23°C° 0 mm 4 mps 612 mmHg 17%
    12:00 +26°C° 0 mm 3 mps 612 mmHg 15%
    13:00 +28°C° 0 mm 2 mps 612 mmHg 13%
    14:00 +27°C° 0 mm 2 mps 612 mmHg 13%
    15:00 +27°C° 0 mm 2 mps 611 mmHg 12%
    16:00 +27°C° 0 mm 1 mps 611 mmHg 12%
    17:00 +24°C° 0 mm 1 mps 610 mmHg 15%
    18:00 +20°C° 0 mm 2 mps 609 mmHg 18%
    19:00 +16°C° 0 mm 2 mps 608 mmHg 21%
    20:00 +16°C° 0 mm 2 mps 608 mmHg 22%
    21:00 +15°C° 0 mm 2 mps 609 mmHg 22%
    22:00 +15°C° 0 mm 2 mps 609 mmHg 23%
    23:00 +14°C° 0 mm 2 mps 608 mmHg 23%

    Tomorrow, 19 July, Friday

    Time Temperature Precipitation Wind Pressure Humidity
    00:00 +14°C° 0 mm 2 mps 608 mmHg 24%
    01:00 +13°C° 0 mm 2 mps 608 mmHg 24%
    02:00 +13°C° 0 mm 2 mps 608 mmHg 25%
    03:00 +12°C° 0 mm 3 mps 607 mmHg 25%
    04:00 +12°C° 0 mm 3 mps 607 mmHg 25%
    05:00 +12°C° 0 mm 3 mps 608 mmHg 27%
    06:00 +12°C° 0 mm 3 mps 608 mmHg 28%
    07:00 +11°C° 0 mm 3 mps 608 mmHg 30%
    08:00 +16°C° 0 mm 3 mps 610 mmHg 26%
    09:00 +19°C° 0 mm 4 mps 611 mmHg 23%
    10:00 +22°C° 0 mm 4 mps 612 mmHg 19%
    11:00 +25°C° 0 mm 4 mps 612 mmHg 17%
    12:00 +26°C° 0 mm 3 mps 612 mmHg 15%
    13:00 +28°C° 0 mm 2 mps 612 mmHg 13%
    14:00 +27°C° 0 mm 2 mps 612 mmHg 13%
    15:00 +27°C° 0 mm 2 mps 611 mmHg 13%
    16:00 +27°C° 0 mm 2 mps 611 mmHg 13%
    17:00 +24°C° 0 mm 2 mps 610 mmHg 17%
    18:00 +19°C° 0 mm 2 mps 609 mmHg 22%
    19:00 +16°C° 0 mm 1 mps 608 mmHg 26%
    20:00 +15°C° 0 mm 1 mps 608 mmHg 28%
    21:00 +15°C° 0 mm 1 mps 608 mmHg 29%
    22:00 +14°C° 0 mm 2 mps 609 mmHg 31%
    23:00 +14°C° 0 mm 2 mps 608 mmHg 32%

    Day after tomorrow, 20 July, Saturday

    Time Temperature Precipitation Wind Pressure Humidity
    00:00 +14°C° 0 mm 2 mps 608 mmHg 33%
    01:00 +12°C° 0 mm 3 mps 608 mmHg 34%
    02:00 +12°C° 0 mm 3 mps 607 mmHg 32%
    03:00 +12°C° 0 mm 3 mps 607 mmHg 30%
    04:00 +11°C° 0 mm 3 mps 607 mmHg 29%
    05:00 +11°C° 0 mm 3 mps 607 mmHg 29%
    06:00 +11°C° 0 mm 3 mps 608 mmHg 29%
    07:00 +11°C° 0 mm 3 mps 608 mmHg 30%
    08:00 +15°C° 0 mm 4 mps 610 mmHg 25%
    09:00 +19°C° 0 mm 4 mps 611 mmHg 21%
    10:00 +23°C° 0 mm 4 mps 612 mmHg 16%
    11:00 +25°C° 0 mm 4 mps 612 mmHg 15%
    12:00 +26°C° 0 mm 3 mps 612 mmHg 13%
    13:00 +27°C° 0 mm 3 mps 612 mmHg 11%
    14:00 +27°C° 0 mm 3 mps 611 mmHg 11%
    15:00 +27°C° 0 mm 3 mps 611 mmHg 11%
    16:00 +27°C° 0 mm 3 mps 611 mmHg 11%
    17:00 +23°C° 0 mm 2 mps 610 mmHg 16%
    18:00 +19°C° 0 mm 2 mps 609 mmHg 21%
    19:00 +15°C° 0 mm 1 mps 608 mmHg 26%
    20:00 +15°C° 0 mm 1 mps 608 mmHg 29%
    21:00 +14°C° 0 mm 1 mps 608 mmHg 31%
    22:00 +13°C° 0 mm 1 mps 609 mmHg 33%
    23:00 +13°C° 0 mm 1 mps 608 mmHg 35%

    21 July, Sunday

    Time Temperature Precipitation Wind Pressure Humidity
    00:00 +13°C° 0 mm 1 mps 608 mmHg 37%
    01:00 +13°C° 0 mm 1 mps 608 mmHg 38%
    02:00 +12°C° 0 mm 1 mps 608 mmHg 37%
    03:00 +12°C° 0 mm 1 mps 608 mmHg 35%
    04:00 +12°C° 0 mm 1 mps 608 mmHg 33%
    05:00 +12°C° 0 mm 1 mps 608 mmHg 32%
    06:00 +13°C° 0 mm 1 mps 609 mmHg 30%
    07:00 +13°C° 0 mm 1 mps 609 mmHg 29%
    08:00 +16°C° 0 mm 2 mps 611 mmHg 24%
    09:00 +20°C° 0 mm 3 mps 612 mmHg 20%
    10:00 +23°C° 0 mm 4 mps 613 mmHg 16%
    11:00 +25°C° 0 mm 4 mps 613 mmHg 15%
    12:00 +26°C° 0 mm 3 mps 613 mmHg 14%
    13:00 +28°C° 0 mm 3 mps 612 mmHg 13%
    14:00 +27°C° 0 mm 3 mps 612 mmHg 13%
    15:00 +27°C° 0 mm 2 mps 612 mmHg 14%
    16:00 +27°C° 0 mm 2 mps 611 mmHg 15%
    17:00 +23°C° 0 mm 2 mps 610 mmHg 28%
    18:00 +18°C° 0 mm 2 mps 609 mmHg 41%
    19:00 +14°C° 0 mm 2 mps 608 mmHg 55%
    20:00 +14°C° 0 mm 1 mps 609 mmHg 53%
    21:00 +13°C° 0 mm 1 mps 609 mmHg 52%
    22:00 +13°C° 0 mm 1 mps 609 mmHg 51%
    23:00 +13°C° 0 mm 1 mps 609 mmHg 48%

    22 July, Monday

    Time Temperature Precipitation Wind Pressure Humidity
    00:00 +13°C° 0 mm 1 mps 609 mmHg 45%
    01:00 +13°C° 0 mm 1 mps 609 mmHg 43%
    02:00 +12°C° 0 mm 1 mps 608 mmHg 43%
    03:00 +12°C° 0 mm 1 mps 608 mmHg 44%
    04:00 +12°C° 0 mm 2 mps 608 mmHg 45%
    05:00 +12°C° 0 mm 1 mps 608 mmHg 45%
    06:00 +12°C° 0 mm 1 mps 609 mmHg 46%
    07:00 +12°C° 0 mm 1 mps 609 mmHg 46%
    08:00 +15°C° 0 mm 2 mps 610 mmHg 37%
    09:00 +19°C° 0 mm 2 mps 612 mmHg 29%
    10:00 +24°C° 0 mm 3 mps 613 mmHg 21%
    11:00 +25°C° 0 mm 3 mps 613 mmHg 19%
    12:00 +26°C° 0 mm 3 mps 613 mmHg 17%
    13:00 +27°C° 0 mm 3 mps 612 mmHg 16%
    14:00 +27°C° 0 mm 3 mps 612 mmHg 17%
    15:00 +26°C° 0 mm 3 mps 611 mmHg 19%
    16:00 +26°C° 0 mm 2 mps 611 mmHg 20%
    17:00 +21°C° 0 mm 2 mps 610 mmHg 32%
    18:00 +18°C° 0 mm 2 mps 609 mmHg 45%
    19:00 +14°C° 0 mm 2 mps 607 mmHg 57%
    20:00 +14°C° 0 mm 2 mps 608 mmHg 53%
    21:00 +14°C° 0 mm 1 mps 608 mmHg 50%
    22:00 +14°C° 0 mm 1 mps 609 mmHg 46%
    23:00 +14°C° 0 mm 1 mps 609 mmHg 43%

    23 July, Tuesday

    Time Temperature Precipitation Wind Pressure Humidity
    00:00 +14°C° 0 mm 1 mps 609 mmHg 41%
    01:00 +14°C° 0 mm 2 mps 608 mmHg 38%
    02:00 +14°C° 0 mm 2 mps 608 mmHg 38%
    03:00 +14°C° 0 mm 2 mps 608 mmHg 39%
    04:00 +13°C° 0 mm 2 mps 608 mmHg 39%
    05:00 +13°C° 0 mm 2 mps 608 mmHg 37%
    06:00 +13°C° 0 mm 2 mps 608 mmHg 34%
    07:00 +13°C° 0 mm 2 mps 608 mmHg 31%
    08:00 +16°C° 0 mm 2 mps 610 mmHg 26%
    09:00 +20°C° 0 mm 2 mps 611 mmHg 20%
    10:00 +25°C° 0 mm 2 mps 612 mmHg 15%
    11:00 +26°C° 0 mm 3 mps 612 mmHg 14%
    12:00 +27°C° 0 mm 3 mps 612 mmHg 13%
    13:00 +29°C° 0 mm 3 mps 612 mmHg 12%
    14:00 +28°C° 0 mm 3 mps 611 mmHg 13%
    15:00 +28°C° 0 mm 3 mps 611 mmHg 14%
    16:00 +28°C° 0 mm 2 mps 611 mmHg 14%
    17:00 +24°C° 0 mm 2 mps 610 mmHg 24%
    18:00 +19°C° 0 mm 2 mps 608 mmHg 34%
    19:00 +15°C° 0 mm 1 mps 607 mmHg 43%
    20:00 +15°C° 0 mm 1 mps 608 mmHg 42%
    21:00 +15°C° 0 mm 1 mps 608 mmHg 40%
    22:00 +14°C° 0 mm 1 mps 608 mmHg 38%
    23:00 +15°C° 0 mm 1 mps 608 mmHg 36%
    Show more